Precipitable_Water
0.24 0.18 0.16 0.15 0.16 0.17 0.17 0.16 0.16 0.18 0.19 0.17 0.17 0.19 0.18 0.18 0.18 0.19 0.18 0.17 0.15 0.14 0.13 0.13 0.15 0.16 0.16 0.15 0.15 0.16 0.17 0.17 0.18 0.25 0.34 0.44 0.52 0.56 0.57 0.62 0.70 0.77 0.84 1.02 1.09 1.14 1.15 1.19 1.24 1.30 1.33 1.35 1.42 1.37 1.42 1.35 1.26 1.32 1.32 1.26 1.23 1.37 1.39 1.42 1.41 1.34 1.27 1.15 1.11 1.12 1.08 1.03 1.03 1.04 1.06 1.06 1.05 1.08 1.09 1.09 1.13 1.16 1.18 1.20 1.18 1.16
0.23 0.17 0.15 0.16 0.17 0.17 0.18 0.20 0.18 0.19 0.21 0.20 0.20 0.19 0.17 0.18 0.17 0.20 0.21 0.18 0.17 0.14 0.14 0.14 0.15 0.15 0.16 0.16 0.16 0.19 0.18 0.18 0.25 0.26 0.29 0.45 0.51 0.58 0.64 0.69 0.78 0.87 1.00 1.02 1.02 1.10 1.15 1.15 1.17 1.20 1.21 1.23 1.27 1.29 1.34 1.28 1.30 1.31 1.37 1.35 1.31 1.39 1.33 1.36 1.38 1.31 1.22 1.13 1.06 1.03 1.01 1.01 0.97 0.96 0.97 0.97 1.03 1.06 1.09 1.11 1.12 1.13 1.18 1.18 1.21 1.24
0.19 0.16 0.17 0.18 0.18 0.20 0.20 0.21 0.23 0.22 0.20 0.20 0.19 0.19 0.18 0.17 0.20 0.23 0.22 0.22 0.20 0.17 0.15 0.15 0.15 0.16 0.16 0.16 0.17 0.18 0.18 0.20 0.31 0.30 0.29 0.41 0.48 0.55 0.64 0.69 0.80 0.85 0.89 0.95 0.99 1.07 1.11 1.08 1.09 1.13 1.19 1.28 1.33 1.30 1.32 1.33 1.33 1.32 1.30 1.33 1.31 1.34 1.28 1.32 1.38 1.32 1.16 1.11 1.10 1.03 0.96 0.96 0.92 0.96 0.99 1.00 1.03 1.06 1.03 1.07 1.12 1.15 1.14 1.16 1.20 1.23
0.17 0.17 0.17 0.18 0.19 0.20 0.22 0.23 0.23 0.23 0.22 0.21 0.19 0.18 0.16 0.19 0.21 0.21 0.22 0.19 0.24 0.18 0.16 0.15 0.15 0.16 0.18 0.19 0.17 0.17 0.20 0.23 0.28 0.31 0.32 0.38 0.44 0.50 0.59 0.66 0.72 0.78 0.82 0.84 0.91 1.03 1.13 1.11 1.12 1.13 1.16 1.23 1.31 1.27 1.33 1.34 1.34 1.31 1.31 1.29 1.26 1.28 1.37 1.38 1.37 1.26 1.17 1.16 1.12 1.06 1.02 0.99 0.91 0.93 0.97 0.97 0.98 0.97 0.97 0.98 1.05 1.08 1.09 1.12 1.13 1.16
0.17 0.21 0.23 0.25 0.23 0.21 0.21 0.23 0.23 0.24 0.22 0.22 0.21 0.18 0.18 0.22 0.23 0.25 0.26 0.25 0.24 0.23 0.21 0.19 0.18 0.19 0.19 0.17 0.16 0.17 0.19 0.24 0.25 0.27 0.31 0.34 0.47 0.57 0.67 0.72 0.75 0.74 0.78 0.81 0.93 1.08 1.13 1.15 1.17 1.13 1.18 1.22 1.25 1.38 1.32 1.33 1.35 1.32 1.29 1.26 1.26 1.25 1.32 1.34 1.29 1.22 1.18 1.11 1.04 1.03 1.02 0.99 0.95 0.96 0.93 0.86 0.88 0.93 0.93 0.91 0.93 0.95 1.00 1.00 0.98 1.02
0.18 0.23 0.27 0.24 0.26 0.25 0.21 0.21 0.23 0.24 0.23 0.24 0.25 0.22 0.20 0.24 0.25 0.27 0.29 0.28 0.25 0.19 0.20 0.21 0.17 0.17 0.21 0.19 0.16 0.16 0.17 0.19 0.26 0.26 0.29 0.32 0.37 0.49 0.60 0.72 0.85 0.88 0.89 0.85 0.95 1.12 1.20 1.20 1.24 1.24 1.22 1.19 1.27 1.26 1.20 1.21 1.33 1.32 1.27 1.23 1.25 1.25 1.29 1.27 1.21 1.17 1.10 1.00 0.96 0.96 0.89 0.83 0.82 0.79 0.79 0.74 0.77 0.83 0.82 0.83 0.90 0.96 0.96 0.93 0.93 0.91
0.18 0.25 0.27 0.27 0.26 0.26 0.24 0.22 0.25 0.25 0.23 0.22 0.22 0.24 0.22 0.24 0.26 0.26 0.25 0.24 0.21 0.20 0.24 0.23 0.17 0.16 0.21 0.20 0.20 0.18 0.18 0.16 0.22 0.27 0.31 0.33 0.35 0.48 0.56 0.68 0.75 0.80 0.87 1.00 1.06 1.12 1.18 1.18 1.27 1.28 1.23 1.21 1.23 1.18 1.14 1.26 1.29 1.32 1.29 1.23 1.25 1.23 1.23 1.21 1.19 1.16 1.08 0.98 0.97 0.94 0.89 0.86 0.80 0.73 0.73 0.78 0.83 0.86 0.90 0.89 0.89 0.92 0.98 1.02 1.00 0.95
0.19 0.22 0.24 0.29 0.30 0.27 0.25 0.22 0.27 0.28 0.24 0.19 0.24 0.25 0.22 0.22 0.24 0.23 0.22 0.21 0.22 0.26 0.28 0.27 0.24 0.19 0.18 0.21 0.23 0.23 0.25 0.21 0.20 0.26 0.31 0.34 0.42 0.49 0.59 0.71 0.77 0.86 0.97 1.02 1.08 1.12 1.10 1.13 1.26 1.31 1.21 1.19 1.30 1.35 1.32 1.25 1.22 1.21 1.24 1.27 1.27 1.25 1.20 1.17 1.18 1.12 1.08 0.97 0.91 0.86 0.82 0.79 0.76 0.78 0.78 0.82 0.83 0.89 0.88 0.84 0.85 0.88 0.91 0.95 0.95 0.92
0.20 0.21 0.24 0.25 0.28 0.27 0.25 0.27 0.30 0.29 0.24 0.23 0.25 0.22 0.19 0.21 0.22 0.20 0.20 0.21 0.22 0.23 0.23 0.25 0.27 0.22 0.20 0.23 0.27 0.23 0.21 0.21 0.26 0.29 0.33 0.45 0.52 0.61 0.73 0.80 0.84 0.95 1.03 1.04 1.03 1.03 1.06 1.17 1.25 1.27 1.31 1.25 1.29 1.27 1.27 1.25 1.19 1.19 1.21 1.24 1.26 1.18 1.16 1.16 1.17 1.11 1.06 0.96 0.87 0.80 0.77 0.80 0.88 0.84 0.82 0.87 0.87 0.86 0.84 0.76 0.80 0.82 0.85 0.86 0.89 0.88
0.25 0.25 0.27 0.26 0.25 0.24 0.27 0.30 0.30 0.30 0.23 0.21 0.21 0.21 0.21 0.22 0.21 0.21 0.21 0.22 0.24 0.22 0.20 0.23 0.28 0.22 0.23 0.26 0.24 0.24 0.22 0.21 0.23 0.34 0.44 0.51 0.59 0.72 0.75 0.77 0.83 0.98 1.07 1.10 1.07 1.04 1.08 1.10 1.18 1.31 1.32 1.23 1.15 1.22 1.24 1.23 1.21 1.22 1.20 1.18 1.17 1.11 1.11 1.14 1.12 1.06 0.98 0.91 0.87 0.79 0.81 0.84 0.84 0.85 0.84 0.86 0.82 0.79 0.74 0.73 0.79 0.83 0.83 0.84 0.88 0.92
0.26 0.33 0.33 0.28 0.25 0.27 0.28 0.30 0.30 0.28 0.24 0.24 0.22 0.21 0.22 0.21 0.20 0.21 0.22 0.22 0.20 0.18 0.21 0.25 0.29 0.26 0.22 0.27 0.26 0.24 0.25 0.26 0.28 0.36 0.50 0.55 0.68 0.72 0.73 0.79 0.87 0.94 0.97 1.02 1.01 1.10 1.11 1.17 1.22 1.27 1.21 1.12 1.09 1.16 1.19 1.16 1.17 1.18 1.16 1.16 1.13 1.09 1.07 1.05 1.01 0.99 0.89 0.87 0.89 0.87 0.86 0.85 0.84 0.84 0.80 0.78 0.75 0.71 0.74 0.78 0.81 0.82 0.83 0.86 0.89 0.91
0.25 0.29 0.29 0.29 0.30 0.30 0.30 0.28 0.27 0.25 0.25 0.23 0.20 0.20 0.20 0.20 0.20 0.21 0.21 0.21 0.17 0.16 0.23 0.28 0.29 0.30 0.21 0.25 0.30 0.35 0.39 0.34 0.33 0.42 0.47 0.56 0.68 0.70 0.72 0.83 0.95 0.99 0.96 0.97 0.99 1.03 1.10 1.12 1.20 1.15 1.09 1.03 1.03 1.10 1.11 1.10 1.12 1.12 1.12 1.12 1.09 1.07 1.02 0.98 0.98 1.00 0.92 0.90 0.93 0.93 0.88 0.88 0.86 0.80 0.74 0.69 0.66 0.69 0.74 0.76 0.76 0.81 0.84 0.85 0.89 0.91
0.22 0.26 0.29 0.29 0.30 0.29 0.28 0.22 0.23 0.24 0.24 0.21 0.20 0.21 0.17 0.18 0.20 0.17 0.16 0.13 0.13 0.15 0.21 0.24 0.26 0.25 0.24 0.33 0.38 0.41 0.42 0.42 0.40 0.46 0.50 0.63 0.75 0.74 0.73 0.84 0.96 0.98 0.97 0.97 0.99 0.98 1.07 1.11 1.11 1.08 1.00 0.95 0.95 0.98 1.04 1.05 1.02 1.02 1.06 1.06 1.02 0.97 0.96 0.94 0.98 0.97 0.87 0.89 0.91 0.92 0.91 0.90 0.85 0.79 0.72 0.69 0.65 0.73 0.73 0.75 0.78 0.82 0.84 0.86 0.86 0.87
0.21 0.24 0.26 0.26 0.28 0.29 0.26 0.20 0.18 0.19 0.22 0.22 0.20 0.19 0.17 0.16 0.17 0.15 0.16 0.14 0.15 0.17 0.21 0.22 0.26 0.22 0.33 0.39 0.46 0.46 0.47 0.52 0.52 0.57 0.60 0.69 0.75 0.72 0.75 0.83 0.91 0.96 0.97 0.99 1.01 0.97 1.02 1.07 1.08 1.02 0.96 0.91 0.83 0.80 0.85 0.88 0.90 0.95 0.99 1.00 0.98 0.93 0.94 0.93 0.95 0.91 0.84 0.90 0.95 0.96 0.91 0.87 0.82 0.76 0.71 0.69 0.66 0.72 0.73 0.76 0.80 0.83 0.87 0.85 0.86 0.82
0.17 0.18 0.21 0.23 0.21 0.26 0.25 0.22 0.22 0.22 0.24 0.23 0.24 0.22 0.19 0.19 0.19 0.15 0.17 0.16 0.14 0.16 0.19 0.22 0.20 0.23 0.23 0.40 0.53 0.54 0.56 0.56 0.61 0.65 0.73 0.82 0.81 0.82 0.87 0.91 0.93 0.94 0.95 0.96 0.93 0.96 0.99 1.01 1.04 1.01 0.96 0.90 0.85 0.80 0.83 0.88 0.93 0.97 0.96 0.97 0.95 0.91 0.94 0.92 0.90 0.88 0.87 0.98 1.01 0.99 0.92 0.87 0.82 0.76 0.74 0.71 0.74 0.77 0.76 0.81 0.80 0.87 0.93 0.89 0.87 0.81
0.19 0.20 0.24 0.24 0.24 0.25 0.23 0.23 0.24 0.24 0.25 0.29 0.27 0.25 0.21 0.19 0.25 0.20 0.24 0.22 0.21 0.19 0.17 0.23 0.23 0.36 0.34 0.53 0.60 0.60 0.59 0.61 0.64 0.68 0.75 0.78 0.83 0.86 0.87 0.89 0.90 0.89 0.88 0.89 0.90 0.94 1.00 1.00 1.01 1.01 0.96 0.92 0.89 0.84 0.89 0.93 0.95 0.96 0.96 0.97 0.97 0.95 0.91 0.87 0.90 0.90 0.92 1.02 1.04 1.00 0.94 0.90 0.85 0.79 0.77 0.77 0.83 0.85 0.83 0.81 0.84 0.92 0.94 0.91 0.87 0.86
0.21 0.20 0.26 0.26 0.27 0.26 0.25 0.25 0.23 0.26 0.19 0.34 0.26 0.20 0.20 0.27 0.26 0.24 0.26 0.28 0.26 0.24 0.21 0.28 0.29 0.36 0.48 0.51 0.54 0.55 0.56 0.61 0.66 0.68 0.73 0.77 0.80 0.82 0.82 0.82 0.82 0.81 0.83 0.86 0.89 0.93 0.99 1.03 1.02 1.02 0.99 1.01 1.00 0.95 0.94 0.92 0.97 0.97 0.97 0.95 0.92 0.91 0.89 0.85 0.89 0.92 0.99 1.04 1.04 1.02 0.99 0.95 0.87 0.81 0.79 0.80 0.84 0.86 0.86 0.86 0.94 0.97 0.96 0.92 0.87 0.84
0.22 0.23 0.27 0.28 0.24 0.27 0.28 0.26 0.24 0.27 0.28 0.27 0.23 0.24 0.25 0.25 0.29 0.25 0.22 0.25 0.24 0.21 0.22 0.26 0.24 0.28 0.33 0.29 0.52 0.50 0.53 0.60 0.66 0.68 0.72 0.78 0.82 0.80 0.83 0.83 0.81 0.80 0.83 0.88 0.94 1.02 1.07 1.05 1.00 0.99 1.00 1.03 1.01 0.96 0.99 0.99 1.03 1.04 1.04 1.00 0.94 0.91 0.88 0.89 0.91 0.97 1.05 1.09 1.08 1.03 1.01 0.99 0.89 0.84 0.84 0.85 0.87 0.87 0.85 0.90 0.97 0.99 0.96 0.88 0.85 0.78
0.25 0.20 0.25 0.29 0.30 0.29 0.29 0.26 0.24 0.26 0.28 0.25 0.26 0.34 0.23 0.20 0.18 0.25 0.24 0.20 0.21 0.20 0.21 0.25 0.32 0.33 0.34 0.34 0.47 0.47 0.49 0.56 0.61 0.67 0.69 0.71 0.75 0.77 0.82 0.86 0.88 0.87 0.86 0.88 0.91 0.95 0.99 1.00 0.98 0.98 1.01 1.06 1.04 1.05 1.02 1.03 1.07 1.09 1.09 1.06 1.00 0.94 0.96 0.99 0.98 1.06 1.13 1.14 1.11 1.06 1.03 0.99 0.91 0.89 0.89 0.90 0.91 0.89 0.86 0.91 0.97 0.96 0.93 0.86 0.80 0.67
0.28 0.21 0.24 0.30 0.30 0.33 0.32 0.26 0.20 0.22 0.25 0.26 0.30 0.30 0.34 0.28 0.26 0.23 0.23 0.26 0.25 0.22 0.21 0.24 0.32 0.28 0.41 0.45 0.49 0.51 0.58 0.58 0.59 0.60 0.64 0.71 0.73 0.77 0.80 0.84 0.87 0.86 0.87 0.90 0.94 0.96 0.99 1.00 1.00 1.02 1.02 1.02 1.00 1.00 1.02 0.99 0.97 0.96 1.00 1.03 1.04 1.05 1.05 1.07 1.07 1.07 1.10 1.12 1.11 1.10 1.09 1.02 0.94 0.92 0.93 0.93 0.93 0.88 0.89 0.93 0.97 0.94 0.89 0.80 0.74 0.66
0.29 0.26 0.20 0.27 0.33 0.34 0.28 0.29 0.23 0.24 0.23 0.22 0.22 0.24 0.29 0.29 0.37 0.31 0.30 0.25 0.24 0.23 0.23 0.24 0.23 0.32 0.46 0.57 0.58 0.58 0.63 0.63 0.64 0.63 0.67 0.71 0.74 0.79 0.83 0.84 0.86 0.89 0.89 0.91 0.95 0.98 1.00 1.01 1.04 1.05 1.03 1.02 1.03 1.03 1.04 1.02 1.01 1.00 1.02 1.04 1.07 1.07 1.07 1.07 1.09 1.07 1.11 1.11 1.11 1.15 1.09 1.04 1.00 0.96 0.98 0.97 0.95 0.89 0.89 0.96 0.98 0.95 0.87 0.81 0.73 0.68
0.30 0.26 0.21 0.26 0.28 0.28 0.30 0.35 0.35 0.33 0.32 0.31 0.25 0.22 0.23 0.26 0.26 0.23 0.22 0.29 0.28 0.26 0.25 0.23 0.23 0.38 0.50 0.69 0.68 0.64 0.66 0.66 0.69 0.69 0.70 0.74 0.78 0.82 0.86 0.89 0.91 0.91 0.96 0.98 1.02 1.04 1.04 1.04 1.05 1.07 1.09 1.06 1.03 1.07 1.06 1.07 1.07 1.06 1.04 1.07 1.13 1.14 1.13 1.09 1.07 1.07 1.10 1.14 1.12 1.12 1.20 1.14 1.09 1.04 1.04 1.00 0.97 0.87 0.91 0.98 1.00 0.95 0.87 0.78 0.76 0.70
0.39 0.35 0.26 0.23 0.26 0.30 0.35 0.39 0.39 0.38 0.34 0.33 0.34 0.33 0.31 0.28 0.29 0.29 0.22 0.26 0.28 0.30 0.31 0.30 0.27 0.36 0.60 0.71 0.69 0.73 0.72 0.72 0.75 0.75 0.72 0.77 0.80 0.85 0.89 0.94 0.98 0.99 0.99 1.01 1.01 1.03 1.04 1.02 1.00 0.99 1.00 1.01 1.03 1.07 1.09 1.08 1.07 1.07 1.10 1.16 1.16 1.15 1.16 1.16 1.13 1.15 1.17 1.17 1.19 1.17 1.24 1.28 1.13 1.10 1.05 1.01 0.95 0.89 0.95 1.00 0.98 0.90 0.82 0.78 0.75 0.73
0.44 0.34 0.28 0.26 0.30 0.33 0.38 0.41 0.41 0.41 0.38 0.32 0.35 0.38 0.33 0.31 0.33 0.26 0.25 0.29 0.27 0.30 0.28 0.28 0.26 0.39 0.61 0.72 0.73 0.75 0.76 0.75 0.79 0.83 0.77 0.76 0.77 0.81 0.85 0.90 0.95 0.96 1.00 1.03 1.02 1.00 0.99 0.97 0.96 0.95 0.97 1.00 1.03 1.04 1.04 1.03 1.04 1.07 1.11 1.13 1.12 1.13 1.15 1.16 1.19 1.23 1.21 1.21 1.17 1.19 1.25 1.32 1.22 1.13 1.08 1.01 0.90 0.94 0.97 0.99 0.93 0.87 0.81 0.80 0.74 0.75
0.34 0.35 0.34 0.27 0.25 0.27 0.30 0.35 0.37 0.41 0.39 0.36 0.35 0.39 0.40 0.37 0.32 0.34 0.31 0.31 0.24 0.27 0.29 0.28 0.24 0.33 0.58 0.72 0.74 0.69 0.73 0.74 0.80 0.82 0.81 0.78 0.78 0.77 0.81 0.87 0.92 0.92 0.93 0.95 0.95 0.95 0.94 0.92 0.92 0.94 0.96 0.95 0.97 0.98 0.97 0.98 1.02 1.04 1.07 1.10 1.14 1.12 1.15 1.15 1.14 1.21 1.23 1.20 1.18 1.19 1.25 1.26 1.21 1.18 1.14 0.98 0.96 0.96 0.96 0.96 0.90 0.85 0.81 0.77 0.71 0.74
0.40 0.39 0.35 0.26 0.22 0.19 0.19 0.21 0.25 0.30 0.33 0.38 0.39 0.37 0.41 0.37 0.34 0.30 0.25 0.26 0.22 0.27 0.28 0.27 0.30 0.44 0.62 0.66 0.66 0.67 0.68 0.70 0.78 0.77 0.78 0.80 0.81 0.83 0.84 0.84 0.87 0.90 0.91 0.91 0.91 0.91 0.91 0.95 0.96 0.95 0.95 0.97 0.98 1.00 1.02 1.01 1.01 1.02 1.09 1.11 1.13 1.15 1.14 1.14 1.16 1.20 1.20 1.20 1.18 1.18 1.22 1.19 1.14 1.12 1.12 1.05 1.04 1.00 0.98 0.95 0.87 0.82 0.80 0.74 0.66 0.71
0.42 0.43 0.39 0.36 0.30 0.27 0.28 0.33 0.39 0.39 0.37 0.33 0.36 0.37 0.38 0.41 0.40 0.36 0.32 0.27 0.24 0.30 0.27 0.30 0.33 0.41 0.49 0.56 0.60 0.62 0.66 0.65 0.68 0.70 0.72 0.75 0.78 0.82 0.84 0.84 0.85 0.87 0.91 0.91 0.92 0.94 0.94 0.96 0.98 0.98 0.99 0.99 0.97 1.00 1.03 1.02 1.03 1.07 1.08 1.05 1.08 1.10 1.10 1.11 1.13 1.16 1.17 1.17 1.19 1.16 1.13 1.12 1.14 1.13 1.08 1.06 1.05 1.02 1.00 0.97 0.90 0.81 0.79 0.78 0.69 0.70
0.45 0.40 0.40 0.39 0.38 0.36 0.39 0.39 0.42 0.41 0.36 0.37 0.36 0.37 0.40 0.40 0.40 0.38 0.33 0.29 0.40 0.30 0.26 0.38 0.41 0.37 0.45 0.54 0.59 0.63 0.66 0.69 0.71 0.73 0.76 0.77 0.79 0.80 0.79 0.80 0.80 0.82 0.86 0.89 0.91 0.94 0.93 1.00 0.99 0.94 0.96 0.97 1.01 1.05 1.02 1.07 1.05 1.04 1.03 1.01 1.06 1.08 1.05 1.07 1.08 1.08 1.06 1.08 1.15 1.12 1.09 1.11 1.15 1.13 1.10 1.09 1.08 1.08 1.05 1.03 0.97 0.85 0.83 0.83 0.74 0.72
0.41 0.36 0.41 0.40 0.40 0.41 0.41 0.39 0.41 0.40 0.40 0.40 0.40 0.39 0.38 0.41 0.41 0.38 0.40 0.40 0.38 0.30 0.30 0.42 0.45 0.41 0.49 0.56 0.61 0.64 0.66 0.68 0.71 0.74 0.77 0.79 0.80 0.79 0.77 0.72 0.69 0.68 0.70 0.73 0.76 0.80 0.79 0.83 0.84 0.88 0.96 1.05 1.06 0.98 0.98 0.96 0.98 0.98 0.99 0.98 1.05 1.10 1.07 1.10 1.12 1.13 1.17 1.13 1.09 1.07 1.05 1.12 1.18 1.17 1.12 1.09 1.09 1.09 1.07 1.06 1.03 0.93 0.92 0.91 0.85 0.80
0.44 0.37 0.41 0.42 0.39 0.39 0.40 0.39 0.40 0.36 0.37 0.38 0.39 0.40 0.41 0.42 0.42 0.43 0.46 0.44 0.37 0.36 0.41 0.45 0.47 0.47 0.56 0.61 0.66 0.70 0.74 0.74 0.76 0.79 0.80 0.78 0.76 0.75 0.70 0.68 0.68 0.68 0.69 0.70 0.71 0.70 0.71 0.71 0.71 0.72 0.74 0.75 0.74 0.77 0.82 0.91 0.93 0.94 0.91 0.94 0.99 1.03 1.06 1.06 1.03 1.09 1.01 0.96 1.00 1.06 1.12 1.17 1.14 1.11 1.09 1.08 1.07 1.11 1.09 1.07 1.05 0.98 0.92 0.93 0.92 0.89
0.44 0.40 0.43 0.42 0.37 0.35 0.38 0.38 0.38 0.37 0.37 0.35 0.38 0.40 0.41 0.44 0.44 0.45 0.48 0.49 0.45 0.45 0.49 0.47 0.44 0.45 0.60 0.67 0.68 0.73 0.76 0.74 0.75 0.73 0.74 0.78 0.76 0.70 0.67 0.66 0.68 0.70 0.71 0.72 0.72 0.70 0.70 0.70 0.69 0.69 0.68 0.68 0.69 0.69 0.71 0.72 0.76 0.78 0.81 0.91 0.89 0.94 0.96 0.94 0.91 0.92 0.95 0.92 0.95 1.02 1.08 1.10 1.12 1.13 1.12 1.10 1.08 1.04 1.05 1.05 1.08 1.01 0.92 0.91 0.90 0.90
0.47 0.40 0.45 0.42 0.33 0.33 0.37 0.37 0.36 0.36 0.35 0.34 0.38 0.41 0.41 0.40 0.38 0.42 0.41 0.50 0.46 0.42 0.46 0.47 0.41 0.43 0.57 0.63 0.64 0.69 0.69 0.69 0.67 0.68 0.69 0.68 0.69 0.65 0.64 0.65 0.66 0.68 0.68 0.69 0.70 0.70 0.69 0.68 0.67 0.66 0.65 0.65 0.66 0.66 0.65 0.66 0.69 0.68 0.67 0.70 0.75 0.88 0.90 0.90 0.92 0.93 0.93 0.97 1.00 0.99 1.00 1.02 1.03 1.09 1.13 1.08 0.96 1.03 1.07 1.12 1.11 1.02 0.95 0.90 0.88 0.90
0.45 0.44 0.39 0.38 0.33 0.33 0.40 0.39 0.36 0.36 0.33 0.30 0.33 0.40 0.43 0.42 0.44 0.47 0.48 0.50 0.49 0.49 0.45 0.44 0.46 0.57 0.58 0.60 0.57 0.60 0.62 0.64 0.64 0.64 0.64 0.63 0.61 0.61 0.62 0.64 0.66 0.68 0.70 0.70 0.70 0.69 0.69 0.68 0.67 0.65 0.64 0.64 0.64 0.64 0.64 0.64 0.64 0.64 0.63 0.63 0.66 0.67 0.70 0.72 0.71 0.71 0.72 0.75 0.78 0.87 0.97 1.01 1.01 1.06 1.07 1.07 1.10 1.15 1.05 1.03 1.00 0.97 0.95 0.93 0.92 0.90
0.42 0.41 0.40 0.43 0.33 0.34 0.37 0.38 0.38 0.32 0.23 0.27 0.47 0.48 0.46 0.42 0.41 0.39 0.40 0.44 0.50 0.50 0.47 0.50 0.56 0.62 0.64 0.63 0.60 0.58 0.60 0.61 0.63 0.65 0.67 0.64 0.60 0.59 0.61 0.63 0.65 0.67 0.69 0.71 0.71 0.71 0.71 0.71 0.70 0.69 0.68 0.67 0.66 0.66 0.67 0.67 0.65 0.65 0.65 0.64 0.65 0.65 0.65 0.64 0.64 0.65 0.65 0.66 0.66 0.67 0.69 0.73 0.79 0.89 0.99 1.02 1.02 1.01 0.98 0.94 0.92 0.94 0.96 0.95 0.94 0.90
0.35 0.33 0.32 0.39 0.33 0.33 0.37 0.36 0.30 0.24 0.27 0.45 0.50 0.53 0.51 0.48 0.45 0.44 0.46 0.48 0.51 0.53 0.52 0.51 0.51 0.53 0.60 0.63 0.63 0.61 0.63 0.64 0.66 0.65 0.65 0.66 0.64 0.62 0.62 0.63 0.64 0.65 0.67 0.68 0.68 0.70 0.71 0.74 0.73 0.71 0.70 0.70 0.72 0.72 0.69 0.67 0.67 0.66 0.65 0.66 0.66 0.67 0.67 0.66 0.64 0.64 0.65 0.65 0.66 0.67 0.67 0.69 0.70 0.70 0.73 0.79 0.88 0.92 0.90 0.90 0.91 0.87 0.86 0.85 0.83 0.83
0.36 0.35 0.38 0.33 0.34 0.35 0.29 0.28 0.20 0.24 0.40 0.46 0.48 0.52 0.54 0.51 0.50 0.48 0.44 0.49 0.51 0.49 0.50 0.47 0.50 0.52 0.55 0.58 0.61 0.64 0.63 0.63 0.65 0.65 0.65 0.66 0.65 0.63 0.62 0.62 0.62 0.63 0.63 0.65 0.66 0.67 0.68 0.70 0.72 0.74 0.72 0.72 0.72 0.72 0.70 0.70 0.69 0.67 0.65 0.66 0.66 0.68 0.69 0.68 0.67 0.67 0.67 0.66 0.67 0.68 0.70 0.70 0.69 0.69 0.71 0.72 0.73 0.73 0.75 0.85 0.89 0.88 0.87 0.81 0.79 0.80
0.42 0.42 0.40 0.33 0.37 0.26 0.28 0.27 0.26 0.37 0.36 0.39 0.39 0.43 0.50 0.45 0.46 0.43 0.36 0.43 0.53 0.54 0.48 0.46 0.49 0.52 0.54 0.56 0.58 0.58 0.61 0.61 0.58 0.58 0.63 0.63 0.63 0.63 0.63 0.63 0.64 0.64 0.65 0.66 0.66 0.66 0.69 0.71 0.72 0.75 0.76 0.74 0.72 0.71 0.70 0.69 0.68 0.68 0.65 0.64 0.64 0.65 0.66 0.66 0.63 0.63 0.63 0.63 0.62 0.61 0.61 0.60 0.61 0.62 0.64 0.65 0.65 0.65 0.67 0.68 0.71 0.83 0.88 0.83 0.84 0.81
0.42 0.33 0.40 0.33 0.33 0.35 0.28 0.25 0.26 0.25 0.23 0.32 0.40 0.47 0.51 0.53 0.54 0.55 0.47 0.43 0.55 0.55 0.53 0.50 0.48 0.50 0.52 0.53 0.54 0.56 0.56 0.52 0.48 0.51 0.59 0.63 0.64 0.62 0.63 0.64 0.64 0.65 0.65 0.65 0.67 0.67 0.67 0.67 0.68 0.68 0.67 0.69 0.72 0.73 0.69 0.69 0.68 0.67 0.64 0.62 0.63 0.63 0.62 0.62 0.62 0.64 0.63 0.61 0.61 0.60 0.58 0.57 0.57 0.58 0.59 0.62 0.62 0.63 0.65 0.67 0.71 0.70 0.74 0.73 0.74 0.74
0.44 0.43 0.39 0.33 0.31 0.32 0.29 0.25 0.25 0.22 0.27 0.39 0.41 0.45 0.50 0.55 0.54 0.55 0.44 0.35 0.52 0.54 0.56 0.53 0.50 0.51 0.52 0.52 0.54 0.55 0.51 0.44 0.44 0.50 0.58 0.61 0.63 0.63 0.62 0.61 0.61 0.62 0.63 0.64 0.62 0.61 0.63 0.63 0.63 0.63 0.64 0.63 0.64 0.66 0.68 0.68 0.68 0.67 0.65 0.66 0.67 0.67 0.66 0.65 0.65 0.65 0.65 0.64 0.64 0.64 0.62 0.62 0.61 0.61 0.61 0.60 0.59 0.60 0.61 0.63 0.65 0.71 0.72 0.71 0.71 0.73
0.36 0.36 0.35 0.31 0.30 0.32 0.30 0.26 0.25 0.30 0.29 0.39 0.44 0.45 0.49 0.56 0.52 0.46 0.29 0.30 0.47 0.54 0.54 0.52 0.49 0.49 0.50 0.53 0.54 0.53 0.49 0.44 0.45 0.50 0.57 0.59 0.60 0.61 0.60 0.59 0.58 0.57 0.57 0.58 0.58 0.59 0.60 0.63 0.63 0.59 0.59 0.60 0.62 0.65 0.65 0.66 0.68 0.68 0.66 0.66 0.68 0.67 0.65 0.65 0.64 0.64 0.63 0.62 0.62 0.62 0.62 0.62 0.63 0.63 0.63 0.63 0.64 0.64 0.64 0.64 0.63 0.64 0.66 0.66 0.67 0.67
0.32 0.32 0.31 0.28 0.29 0.31 0.31 0.30 0.31 0.33 0.41 0.44 0.44 0.45 0.49 0.53 0.49 0.31 0.25 0.37 0.48 0.50 0.51 0.50 0.49 0.50 0.52 0.52 0.52 0.46 0.51 0.54 0.55 0.58 0.61 0.61 0.59 0.59 0.59 0.59 0.58 0.55 0.53 0.52 0.52 0.54 0.53 0.55 0.56 0.56 0.57 0.58 0.58 0.58 0.59 0.60 0.61 0.61 0.62 0.63 0.63 0.62 0.63 0.63 0.63 0.61 0.59 0.58 0.56 0.55 0.55 0.55 0.57 0.57 0.57 0.58 0.58 0.59 0.59 0.59 0.59 0.59 0.57 0.55 0.55 0.57
0.32 0.33 0.35 0.34 0.30 0.29 0.31 0.28 0.29 0.34 0.42 0.45 0.47 0.47 0.48 0.41 0.29 0.28 0.45 0.55 0.52 0.49 0.50 0.52 0.51 0.51 0.50 0.48 0.49 0.48 0.50 0.52 0.54 0.55 0.56 0.56 0.56 0.57 0.57 0.57 0.55 0.53 0.52 0.50 0.50 0.50 0.53 0.53 0.53 0.54 0.56 0.57 0.56 0.56 0.57 0.56 0.54 0.53 0.54 0.54 0.53 0.54 0.56 0.57 0.58 0.58 0.57 0.56 0.55 0.54 0.53 0.52 0.52 0.52 0.51 0.51 0.51 0.49 0.49 0.49 0.50 0.50 0.51 0.51 0.51 0.51
0.30 0.28 0.29 0.29 0.32 0.32 0.31 0.27 0.26 0.21 0.38 0.46 0.46 0.44 0.48 0.35 0.38 0.49 0.52 0.53 0.53 0.51 0.50 0.49 0.49 0.48 0.49 0.47 0.49 0.48 0.48 0.48 0.48 0.49 0.51 0.51 0.51 0.51 0.52 0.51 0.50 0.50 0.51 0.50 0.48 0.49 0.52 0.52 0.52 0.52 0.53 0.55 0.56 0.57 0.57 0.56 0.53 0.53 0.52 0.52 0.52 0.53 0.53 0.53 0.53 0.52 0.51 0.51 0.50 0.50 0.50 0.50 0.49 0.48 0.48 0.47 0.46 0.45 0.44 0.45 0.44 0.44 0.44 0.44 0.43 0.42
0.34 0.28 0.29 0.31 0.35 0.26 0.26 0.23 0.25 0.36 0.42 0.48 0.44 0.36 0.44 0.47 0.52 0.52 0.50 0.47 0.51 0.51 0.49 0.49 0.49 0.50 0.50 0.48 0.47 0.47 0.47 0.47 0.48 0.49 0.49 0.49 0.48 0.48 0.47 0.47 0.48 0.49 0.50 0.51 0.50 0.49 0.53 0.52 0.53 0.53 0.53 0.54 0.54 0.54 0.54 0.53 0.51 0.51 0.50 0.50 0.52 0.52 0.52 0.51 0.50 0.49 0.47 0.46 0.46 0.45 0.45 0.44 0.44 0.44 0.44 0.45 0.44 0.43 0.41 0.41 0.41 0.42 0.42 0.43 0.42 0.41
0.35 0.29 0.31 0.26 0.35 0.30 0.29 0.34 0.41 0.45 0.47 0.49 0.49 0.48 0.49 0.52 0.54 0.54 0.52 0.50 0.49 0.50 0.53 0.50 0.50 0.51 0.51 0.50 0.49 0.48 0.47 0.48 0.49 0.49 0.47 0.46 0.45 0.45 0.45 0.45 0.45 0.46 0.47 0.47 0.47 0.48 0.50 0.50 0.50 0.50 0.50 0.52 0.52 0.52 0.53 0.52 0.49 0.48 0.47 0.49 0.50 0.49 0.47 0.46 0.44 0.43 0.41 0.41 0.41 0.41 0.41 0.41 0.41 0.40 0.40 0.40 0.40 0.39 0.38 0.38 0.38 0.36 0.37 0.38 0.38 0.38
0.33 0.34 0.35 0.31 0.29 0.37 0.38 0.39 0.41 0.42 0.45 0.46 0.50 0.52 0.51 0.51 0.54 0.54 0.52 0.49 0.51 0.52 0.53 0.51 0.52 0.51 0.51 0.51 0.48 0.48 0.48 0.48 0.48 0.47 0.46 0.46 0.45 0.46 0.48 0.48 0.48 0.48 0.48 0.48 0.46 0.46 0.46 0.47 0.46 0.45 0.45 0.46 0.47 0.48 0.48 0.48 0.46 0.44 0.45 0.46 0.46 0.45 0.44 0.43 0.41 0.40 0.39 0.39 0.39 0.39 0.39 0.38 0.38 0.39 0.39 0.38 0.38 0.38 0.38 0.37 0.37 0.36 0.36 0.36 0.36 0.36
0.29 0.33 0.30 0.26 0.32 0.28 0.23 0.37 0.36 0.36 0.40 0.42 0.43 0.47 0.50 0.52 0.52 0.53 0.52 0.52 0.52 0.52 0.52 0.53 0.52 0.51 0.50 0.50 0.48 0.47 0.47 0.47 0.46 0.46 0.47 0.46 0.46 0.47 0.49 0.50 0.50 0.49 0.46 0.43 0.44 0.44 0.44 0.44 0.44 0.44 0.44 0.43 0.44 0.45 0.44 0.44 0.43 0.43 0.43 0.43 0.43 0.43 0.42 0.41 0.40 0.39 0.38 0.38 0.38 0.39 0.38 0.37 0.37 0.37 0.37 0.37 0.37 0.37 0.37 0.36 0.35 0.35 0.35 0.35 0.34 0.33
0.21 0.28 0.28 0.28 0.28 0.25 0.25 0.33 0.35 0.36 0.38 0.40 0.40 0.40 0.42 0.45 0.47 0.49 0.50 0.51 0.51 0.52 0.52 0.52 0.52 0.51 0.51 0.49 0.49 0.47 0.46 0.46 0.45 0.46 0.47 0.46 0.48 0.49 0.49 0.49 0.50 0.49 0.47 0.45 0.44 0.45 0.45 0.45 0.43 0.42 0.42 0.41 0.42 0.43 0.43 0.43 0.43 0.44 0.44 0.43 0.43 0.42 0.41 0.40 0.39 0.38 0.38 0.38 0.38 0.38 0.38 0.37 0.37 0.37 0.36 0.36 0.36 0.35 0.35 0.35 0.36 0.35 0.35 0.35 0.35 0.33
0.26 0.29 0.24 0.28 0.26 0.32 0.35 0.35 0.34 0.35 0.35 0.35 0.35 0.36 0.37 0.39 0.42 0.44 0.46 0.46 0.46 0.45 0.45 0.45 0.47 0.46 0.46 0.46 0.47 0.45 0.44 0.45 0.45 0.45 0.45 0.47 0.48 0.48 0.48 0.48 0.47 0.44 0.42 0.39 0.43 0.44 0.44 0.43 0.42 0.41 0.41 0.41 0.42 0.43 0.43 0.43 0.44 0.44 0.43 0.43 0.43 0.42 0.40 0.39 0.39 0.39 0.38 0.38 0.38 0.37 0.38 0.38 0.38 0.37 0.37 0.36 0.36 0.36 0.36 0.35 0.35 0.35 0.35 0.39 0.40 0.38
0.23 0.22 0.27 0.26 0.22 0.24 0.26 0.29 0.33 0.26 0.26 0.31 0.34 0.35 0.36 0.38 0.39 0.40 0.41 0.41 0.41 0.41 0.42 0.42 0.42 0.43 0.43 0.42 0.42 0.44 0.43 0.44 0.44 0.44 0.44 0.45 0.45 0.46 0.46 0.45 0.42 0.41 0.39 0.40 0.43 0.44 0.44 0.44 0.42 0.40 0.40 0.41 0.43 0.43 0.42 0.41 0.42 0.42 0.42 0.42 0.41 0.40 0.38 0.37 0.37 0.36 0.36 0.37 0.37 0.37 0.38 0.38 0.38 0.38 0.37 0.36 0.34 0.34 0.35 0.38 0.38 0.37 0.36 0.36 0.40 0.42
0.20 0.24 0.25 0.22 0.22 0.22 0.33 0.36 0.36 0.36 0.35 0.35 0.36 0.37 0.37 0.37 0.36 0.36 0.37 0.37 0.36 0.37 0.37 0.37 0.37 0.37 0.38 0.39 0.38 0.39 0.40 0.40 0.41 0.41 0.41 0.41 0.41 0.42 0.43 0.41 0.38 0.37 0.37 0.40 0.41 0.43 0.42 0.40 0.40 0.38 0.38 0.40 0.41 0.41 0.40 0.40 0.41 0.41 0.41 0.41 0.41 0.40 0.38 0.37 0.36 0.35 0.35 0.36 0.36 0.36 0.36 0.36 0.36 0.36 0.35 0.34 0.33 0.33 0.31 0.31 0.33 0.35 0.35 0.36 0.37 0.39
Wind_Speed
14 15 17 17 17 17 18 19 20 19 18 18 18 18 18 17 17 17 16 16 17 18 20 22 20 20 19 17 17 18 17 17 20 23 21 20 20 19 20 19 18 17 16 16 15 15 15 15 16 17 17 16 15 13 13 12 11 11 11 10 9 8 10 12 11 10 10 9 9 9 8 8 7 7 6 5 4 4 4 4 3 2 2 1 1 1
14 16 17 17 16 17 18 18 18 19 19 19 18 18 18 18 17 16 16 16 16 16 19 21 20 19 19 17 17 18 17 16 18 22 23 20 19 18 18 19 17 16 17 16 15 15 15 16 16 17 17 17 16 15 14 13 11 11 11 10 10 9 11 13 12 10 10 10 10 9 9 8 7 7 7 6 5 4 3 3 3 2 2 2 1 0
15 16 16 16 16 17 17 17 17 18 18 18 17 17 17 16 15 13 14 15 15 15 18 21 20 18 17 17 18 18 16 14 14 20 21 19 18 18 18 18 18 17 18 17 15 15 16 16 17 17 17 17 17 16 15 13 12 11 10 10 9 9 12 13 11 10 10 10 10 9 9 8 7 7 6 6 5 4 3 2 2 2 2 1 1 1
14 14 14 15 15 16 17 17 17 17 17 17 16 16 16 15 13 11 10 11 12 13 15 18 18 16 15 16 18 17 16 16 17 19 20 20 19 19 19 19 19 19 18 17 16 16 16 16 17 17 17 16 16 15 14 12 11 10 10 9 9 11 13 12 10 10 10 10 10 9 9 8 7 6 6 5 5 4 3 2 2 1 1 1 0 0
15 14 13 13 14 16 17 17 17 16 16 16 17 17 16 15 14 11 8 7 8 10 12 13 13 13 13 13 15 16 16 17 19 19 19 18 18 18 18 19 19 19 19 17 16 16 16 16 17 17 16 15 13 13 12 11 10 10 10 9 10 12 12 11 11 11 11 11 10 10 9 8 7 7 6 5 5 4 3 3 2 2 2 1 1 1
15 15 13 14 15 15 15 16 16 16 15 15 15 16 17 17 16 13 10 7 5 9 12 12 11 12 12 12 13 15 17 18 18 18 19 18 16 16 17 18 18 18 18 17 16 16 15 16 17 17 17 14 13 13 13 11 10 11 10 10 11 12 12 12 12 12 12 12 11 11 10 9 8 7 7 6 6 5 4 3 3 3 2 2 2 2
13 14 14 15 16 16 16 16 15 15 14 15 15 14 16 17 17 14 12 10 7 9 13 13 12 13 13 12 14 15 16 18 18 17 18 18 15 15 17 18 17 17 16 15 15 15 15 16 17 17 16 14 13 14 13 12 11 11 11 11 13 12 12 13 12 12 13 13 12 11 10 9 8 7 7 7 6 5 5 4 3 3 3 3 3 3
13 15 15 15 16 16 16 15 14 13 13 15 15 14 16 17 17 15 12 13 12 11 11 12 13 13 14 16 17 16 16 16 17 17 17 16 15 15 16 16 16 16 15 15 15 14 14 15 16 15 13 11 11 11 11 12 12 11 11 12 13 13 13 13 13 13 13 13 12 11 10 9 8 8 8 7 6 5 5 4 4 4 4 4 4 4
13 14 15 15 14 14 14 14 13 13 13 13 13 15 16 16 18 16 13 13 12 10 12 12 12 12 14 16 16 17 17 16 16 16 15 14 14 14 13 14 14 14 15 15 15 15 14 14 14 13 12 10 9 9 9 11 11 11 11 13 13 13 13 13 13 13 13 12 12 11 10 9 8 8 8 7 6 5 5 5 4 4 4 4 4 4
12 13 14 15 14 13 12 13 13 14 13 12 12 14 14 15 16 16 14 14 11 11 13 13 12 11 12 13 12 14 17 18 17 16 15 14 14 12 11 13 14 15 15 14 14 14 13 12 12 13 12 11 9 8 9 9 10 10 11 12 13 14 13 13 14 14 13 12 12 12 11 10 9 8 8 7 6 5 5 5 5 4 4 4 4 4
14 13 13 14 14 13 13 13 13 14 13 12 12 13 13 14 14 14 15 15 12 12 13 13 12 11 11 11 11 12 13 16 17 16 16 16 14 12 13 13 14 16 16 14 13 14 13 13 14 14 14 11 9 9 8 8 9 11 12 13 13 14 14 14 14 13 13 13 13 12 12 11 9 8 8 7 6 6 5 5 5 5 5 5 5 5
16 14 12 12 13 13 13 13 13 13 14 13 11 12 12 11 11 12 14 15 13 13 13 13 12 12 11 11 12 11 10 12 16 16 16 16 13 13 13 13 14 16 15 14 14 13 13 14 14 14 14 11 9 9 8 8 9 11 12 13 13 15 15 14 14 13 12 13 13 12 12 11 9 8 8 7 7 6 6 5 5 5 5 5 5 5
16 16 13 11 11 11 11 13 13 13 13 14 13 12 11 9 8 9 11 14 15 14 13 13 12 12 12 11 11 10 7 8 12 16 17 15 14 13 14 13 13 13 13 13 13 12 13 14 14 13 13 11 10 10 10 10 10 11 12 13 13 15 15 14 13 13 13 13 13 13 12 11 9 9 8 8 7 7 6 6 5 5 5 5 5 5
13 15 15 13 12 12 13 13 13 12 12 14 15 13 12 9 9 10 10 11 13 14 14 13 12 12 11 10 10 10 9 7 9 11 13 14 14 14 14 13 13 12 11 12 12 11 12 13 13 13 13 12 10 10 11 12 10 11 12 12 13 14 14 13 14 14 14 13 13 13 13 11 10 10 9 8 8 7 7 6 6 6 5 5 5 4
12 14 15 15 13 13 14 14 14 12 10 12 14 13 13 12 11 11 9 9 11 11 12 12 12 12 11 11 10 9 9 8 8 8 10 12 13 13 13 12 11 11 11 11 11 11 12 13 14 14 13 12 11 9 10 10 10 11 12 12 12 13 13 13 13 14 14 14 14 14 13 11 11 11 10 10 9 8 7 7 6 6 6 5 5 4
14 14 14 16 15 14 14 14 15 13 10 11 12 13 15 14 12 11 10 10 9 8 9 10 11 11 11 11 10 8 8 9 8 8 9 11 12 11 10 10 10 10 10 11 12 12 12 12 14 14 13 12 11 10 10 10 10 11 12 11 11 12 13 13 13 14 13 13 13 14 14 12 11 11 11 11 10 9 8 7 7 7 7 6 5 4
13 13 13 14 16 16 14 14 15 15 12 10 11 13 15 14 12 10 10 11 8 7 9 10 10 11 11 10 9 9 8 8 8 8 9 10 11 10 10 10 10 10 10 10 11 11 12 12 13 13 13 12 11 11 11 11 10 11 12 12 12 12 13 13 13 14 13 12 12 13 14 13 12 11 11 11 10 10 9 8 8 7 7 7 6 5
13 14 12 12 14 16 15 15 15 16 13 11 11 12 11 11 12 11 10 10 9 9 10 10 11 10 10 11 10 9 9 9 9 8 9 10 11 11 11 11 10 10 10 9 10 11 12 12 12 13 13 13 12 11 12 11 11 11 12 12 12 13 13 14 13 13 13 13 12 12 13 13 13 13 12 11 11 10 9 9 9 8 8 7 6 6
14 14 13 12 12 12 13 14 15 15 15 14 12 11 10 9 11 12 11 10 11 10 9 9 9 9 10 11 11 10 11 11 10 10 10 11 11 11 11 11 11 10 10 10 11 12 13 13 12 13 13 13 12 11 12 11 10 11 11 12 12 13 13 13 13 13 13 13 13 12 13 14 14 13 12 12 11 10 10 10 10 9 8 8 7 6
15 14 13 13 13 11 10 13 15 14 15 15 13 11 11 11 11 12 12 11 10 10 10 8 8 10 11 12 12 11 10 10 11 11 11 12 12 12 12 12 12 11 11 11 11 12 13 12 12 12 12 12 12 12 13 13 12 11 11 12 13 13 13 13 13 13 13 13 14 13 13 14 15 14 13 12 11 10 10 10 10 9 9 8 7 7
15 16 14 13 13 11 11 11 12 12 11 14 15 14 12 11 11 12 12 12 11 9 10 9 9 11 11 11 11 11 10 10 10 10 10 11 11 12 12 12 12 12 11 11 12 12 12 11 11 11 12 13 13 13 13 13 12 12 12 13 14 14 14 14 14 14 14 14 14 14 13 14 14 14 13 12 11 11 10 10 10 10 9 8 8 8
13 16 16 15 13 13 13 11 10 10 9 10 12 14 14 12 12 11 12 14 13 10 9 10 10 11 11 10 10 11 11 10 9 9 10 9 10 10 10 10 11 11 10 10 11 12 12 11 11 11 12 13 13 13 13 12 12 12 13 13 14 15 15 15 16 16 15 15 15 15 15 15 14 14 13 12 11 11 10 10 10 10 9 9 8 8
13 14 16 17 16 15 14 12 9 9 9 9 8 9 11 12 13 13 12 13 13 11 9 8 9 10 11 10 10 11 10 8 7 8 9 8 8 9 8 8 9 10 10 10 11 11 12 12 12 12 12 12 12 12 12 12 12 12 12 13 13 14 15 15 15 16 16 16 16 16 17 17 15 14 13 12 11 11 11 11 10 10 10 9 9 9
14 12 13 16 16 15 15 14 11 9 9 10 9 8 9 10 12 14 15 14 13 13 11 9 9 11 11 10 10 10 9 8 7 8 8 7 8 8 8 8 8 9 10 10 11 11 11 11 11 11 11 12 12 12 12 12 11 11 11 12 12 12 13 13 15 15 15 15 15 15 16 17 15 13 12 12 11 11 11 11 11 11 10 10 9 9
14 12 11 12 13 14 14 15 14 12 11 11 10 8 9 9 9 10 12 13 12 14 14 12 11 12 12 12 11 10 9 9 8 8 7 7 7 8 8 8 8 8 8 10 11 11 10 10 10 9 9 10 10 10 11 11 11 11 11 11 11 11 11 12 14 15 14 13 14 14 15 15 14 12 11 10 10 10 10 11 11 11 11 10 9 10
16 14 11 11 12 13 15 16 16 15 13 12 10 8 7 8 9 10 11 11 11 13 13 12 12 11 11 12 11 10 10 10 9 7 6 6 7 7 7 7 7 7 7 8 8 8 8 8 8 8 8 7 8 8 9 8 9 9 10 10 10 10 10 11 12 14 14 14 14 15 15 15 14 14 12 10 10 10 10 10 11 11 11 11 11 11
17 16 14 12 12 13 15 15 16 16 14 12 10 8 7 8 9 10 11 11 11 12 12 12 13 12 11 11 11 11 11 11 10 8 6 6 6 6 6 6 6 6 7 7 7 7 6 6 5 5 5 5 6 7 7 6 6 7 7 7 8 8 9 10 10 12 13 13 13 14 14 14 14 14 13 12 11 10 10 10 10 11 11 11 11 11
15 15 16 14 13 13 13 13 14 15 15 14 12 10 8 8 8 9 10 12 13 12 11 13 14 14 12 12 11 11 11 11 10 9 8 7 6 7 7 6 6 6 6 6 6 6 5 4 4 3 4 5 6 6 6 5 5 4 5 6 6 7 8 8 9 10 10 11 11 11 12 13 14 13 13 12 11 11 11 11 10 10 10 10 11 11
14 15 16 15 15 14 14 14 14 14 14 15 14 13 11 10 9 9 11 13 13 12 12 13 13 12 12 12 12 12 12 11 10 10 10 9 9 8 7 6 5 5 4 4 4 4 4 4 3 3 3 4 4 4 5 5 5 4 5 6 6 6 7 7 7 8 8 9 9 10 10 11 12 12 11 11 11 11 11 11 11 11 10 10 10 11
13 15 15 15 16 15 14 14 15 15 14 15 15 14 14 13 12 10 11 12 11 11 12 13 12 10 11 12 12 13 13 12 12 11 10 11 11 9 7 5 5 4 3 3 3 3 3 3 3 3 3 3 3 4 4 4 4 4 5 6 6 6 7 7 7 7 7 7 7 8 8 10 11 10 10 11 11 11 11 12 12 11 10 10 10 11
11 12 13 13 14 14 13 13 13 13 13 14 13 13 13 14 14 12 12 12 11 11 12 13 13 12 12 12 11 11 11 10 10 9 9 10 10 9 6 6 6 5 4 4 4 4 4 3 3 3 3 3 3 3 3 3 4 4 5 6 7 7 7 7 7 7 7 7 7 7 7 8 9 10 10 10 11 11 12 13 12 11 11 10 10 11
10 10 10 10 10 11 11 11 11 10 10 11 11 11 12 13 14 14 13 12 12 13 13 13 13 14 13 13 12 11 9 9 8 7 8 8 8 6 5 5 5 6 6 5 5 5 5 5 5 4 4 4 4 3 3 3 4 4 4 5 6 7 7 7 7 7 7 7 7 7 7 8 8 9 10 10 11 11 12 13 12 11 11 12 12 12
8 9 9 8 8 8 9 9 10 9 9 10 11 12 14 15 15 14 13 12 12 13 14 13 13 12 13 14 15 13 11 10 10 9 9 9 8 7 6 5 5 6 7 7 7 7 7 7 7 6 6 6 5 5 5 5 5 5 5 5 5 6 7 6 6 6 6 6 6 6 7 8 9 9 10 11 11 12 13 13 13 12 12 13 13 14
8 8 9 9 9 8 8 8 8 9 10 11 11 12 14 15 15 14 14 15 14 13 14 14 13 11 11 12 13 13 13 12 12 11 11 11 11 10 9 8 7 7 7 8 8 9 9 9 9 8 7 7 7 7 7 6 6 6 6 6 6 6 6 7 7 7 7 7 7 7 8 9 10 10 11 12 13 14 14 14 14 13 13 14 14 15
8 7 8 9 9 9 8 7 8 10 11 11 11 11 11 11 11 12 12 13 14 15 15 15 13 12 11 11 11 12 12 11 11 11 11 12 12 12 11 10 9 8 8 9 10 10 10 10 10 10 9 9 9 8 8 8 8 8 8 8 8 7 8 8 8 8 9 9 9 10 10 11 11 12 13 13 14 15 16 16 15 15 15 15 16 17
9 9 9 9 9 9 8 8 9 10 11 11 10 9 9 9 9 10 9 10 13 16 16 15 14 13 12 12 12 12 12 11 10 10 11 12 12 13 12 11 11 10 10 10 10 10 10 11 11 11 11 11 11 11 11 11 10 10 10 10 10 9 10 10 10 10 11 11 12 12 13 13 14 15 15 15 15 16 16 16 17 17 17 17 18 19
10 10 9 9 9 9 8 8 8 9 10 10 10 9 8 8 8 9 10 10 12 12 13 13 14 14 14 13 13 13 12 11 11 12 13 13 13 13 12 12 12 12 12 12 12 12 12 12 12 13 12 12 12 12 13 13 13 12 12 12 12 12 12 12 12 12 13 13 14 15 15 16 16 17 17 18 18 18 17 17 17 18 19 19 20 20
9 9 9 9 10 9 8 8 9 9 10 11 11 12 11 9 9 10 9 9 10 10 10 11 13 14 15 16 17 16 14 13 14 16 15 15 14 14 14 13 13 13 13 13 13 13 13 12 12 13 13 12 12 12 13 13 14 14 14 14 14 14 14 14 14 15 15 16 17 17 18 18 19 19 20 20 20 20 21 21 20 20 20 21 22 22
9 10 10 10 9 9 9 9 9 9 10 11 12 12 11 10 11 11 9 9 11 11 11 10 12 13 15 16 18 18 17 16 18 18 18 17 16 16 15 15 14 13 13 13 13 13 13 13 13 13 13 12 12 13 13 13 14 14 15 16 16 16 16 17 17 18 18 19 20 20 21 21 21 22 22 22 23 23 24 24 24 24 24 24 25 25
10 10 10 10 10 11 10 9 9 9 10 11 11 11 11 10 9 9 10 11 12 12 12 12 12 13 14 14 15 16 16 17 19 19 19 18 17 16 16 15 15 14 13 13 13 14 14 14 14 14 14 14 14 15 15 15 15 14 15 16 17 18 19 20 21 21 22 22 23 23 24 24 24 25 25 25 25 26 26 27 27 27 28 29 29 30
9 10 10 9 9 10 10 10 10 10 11 12 13 14 14 13 10 9 10 12 11 11 12 12 12 13 13 14 13 13 13 14 15 16 17 17 17 16 16 16 15 15 14 14 14 15 15 15 15 15 15 16 16 16 17 17 17 17 17 17 18 19 20 21 21 22 23 24 24 24 25 25 26 27 27 27 28 28 29 30 30 31 31 32 33 33
7 8 7 7 7 8 9 9 10 10 12 13 14 14 13 13 12 11 11 11 10 10 10 10 10 11 11 11 11 12 12 12 13 14 14 15 15 15 15 15 15 15 15 15 15 16 16 16 16 16 16 16 16 17 17 17 18 18 19 19 20 21 22 22 23 23 24 24 25 25 26 27 27 28 29 30 30 31 32 32 33 33 33 34 34 35
7 7 6 6 7 7 7 8 9 10 12 13 12 12 11 11 12 12 11 10 10 10 10 9 9 9 9 10 11 11 11 11 12 12 12 13 14 14 14 15 15 15 15 15 16 16 17 17 17 17 17 17 18 18 18 18 19 19 20 21 22 23 24 24 25 25 26 27 27 28 29 30 30 31 31 32 32 33 34 34 35 35 35 35 36 37
8 8 8 8 9 8 7 8 8 9 10 10 10 11 11 11 11 11 11 10 10 11 11 10 10 9 9 10 10 11 11 11 11 12 12 13 14 14 14 15 15 15 16 16 17 18 18 18 18 18 18 19 19 20 20 20 21 21 22 23 24 24 25 26 27 27 28 29 30 30 31 32 32 33 33 34 34 35 35 36 36 37 38 38 38 38
8 8 8 9 9 9 9 9 9 8 8 7 7 9 9 9 9 10 10 10 10 11 11 12 12 12 12 12 12 12 12 12 13 14 14 14 15 15 15 15 16 16 17 17 18 18 19 19 19 19 19 20 20 21 21 22 22 23 24 25 26 26 27 28 29 29 30 31 31 32 33 33 34 34 35 35 36 36 37 37 38 39 39 40 40 40
7 7 8 9 9 9 8 9 9 8 7 7 7 7 7 8 9 10 10 11 11 12 12 12 13 13 13 14 14 14 14 15 15 16 16 16 17 16 16 16 16 17 17 18 18 19 19 19 20 20 20 21 21 21 22 22 23 24 25 27 28 28 29 30 31 31 32 32 33 34 34 35 35 36 36 37 37 38 39 39 39 40 40 40 41 41
7 7 8 9 10 10 10 10 10 9 9 9 9 9 9 9 10 10 11 11 12 12 13 13 13 13 14 14 14 15 16 17 17 18 18 18 18 18 17 17 17 18 19 20 20 20 21 21 21 21 21 21 22 23 23 24 25 26 27 28 29 30 31 31 32 33 33 34 34 35 35 35 36 36 37 37 38 38 39 40 40 40 41 41 41 42
9 9 9 10 10 10 11 11 11 10 10 10 10 10 11 12 12 13 13 13 13 13 14 14 15 15 15 16 16 17 17 17 18 19 19 20 20 19 18 18 18 19 21 22 22 22 23 23 22 22 22 23 23 24 25 25 26 27 28 29 30 31 32 32 33 33 34 34 35 35 35 35 36 36 37 37 38 39 39 40 40 41 41 41 42 42
9 9 10 10 10 10 11 12 11 11 11 10 10 10 11 12 13 14 15 15 15 15 15 15 16 16 17 17 18 18 18 18 19 19 19 20 20 19 19 19 19 20 22 23 23 24 24 23 22 22 23 23 24 25 26 27 28 29 29 30 31 31 32 32 33 33 33 34 34 34 34 35 36 36 37 38 38 39 39 40 40 40 41 41 42 42
8 9 10 10 10 11 11 12 12 12 12 12 11 11 12 13 13 14 15 15 16 16 17 17 17 17 18 18 19 19 19 19 19 19 19 20 20 20 19 19 20 21 23 24 24 24 24 22 22 22 23 23 24 25 26 27 28 29 29 30 30 30 31 31 31 32 32 33 33 33 34 35 35 36 36 37 37 38 38 39 39 39 40 40 41 41
8 9 10 10 10 11 11 12 12 12 12 12 12 12 12 12 12 12 13 14 15 16 17 17 17 18 19 19 19 20 20 19 19 19 20 20 20 20 20 20 21 22 23 24 24 24 22 21 21 22 23 24 25 25 26 27 28 29 29 29 29 30 30 30 30 30 31 31 32 32 33 33 34 34 35 35 35 36 36 37 37 38 38 38 38 39
Wind_Direction
233 237 238 237 236 235 234 232 235 239 240 241 243 245 246 246 249 250 252 244 234 234 231 227 227 229 231 234 234 232 230 237 234 223 215 213 218 223 226 226 224 224 226 227 229 232 233 235 236 238 242 242 239 235 227 228 233 229 223 221 223 229 214 196 186 180 179 179 176 173 171 168 167 164 164 164 161 158 153 149 146 143 144 149 161 196
235 237 238 238 237 235 235 233 233 237 241 243 243 248 252 252 253 254 254 244 232 237 236 225 223 229 231 231 231 228 230 243 234 215 209 210 217 224 224 223 221 223 225 226 232 235 233 234 236 237 239 240 238 231 225 227 228 224 224 225 227 226 209 198 192 182 178 177 174 172 172 169 166 167 169 170 172 168 158 148 140 133 127 123 112 97
239 242 240 237 236 234 235 234 232 235 239 242 243 247 252 251 250 255 255 244 237 243 235 220 218 228 232 230 229 225 225 231 215 203 206 208 214 221 221 219 217 218 221 227 236 237 234 234 235 234 236 240 237 229 227 229 226 222 224 226 225 212 197 193 191 184 179 177 174 173 173 172 171 173 177 178 180 180 173 159 147 138 127 121 110 84
239 242 238 233 234 234 234 234 232 234 238 241 240 241 245 242 239 251 258 250 249 244 222 209 215 229 233 231 228 223 221 218 209 207 211 212 215 220 221 219 217 218 223 231 236 236 235 235 234 233 236 240 237 229 224 220 216 217 218 220 213 196 191 196 197 190 183 180 179 178 176 175 174 176 183 185 186 191 191 185 177 171 155 146 147 138
240 238 232 229 233 234 234 234 231 232 238 241 239 236 237 237 236 242 258 269 260 234 207 199 216 232 232 227 228 226 223 223 219 218 220 219 220 221 223 222 221 223 226 229 231 232 236 236 234 235 237 237 230 221 214 206 206 210 211 211 203 195 196 200 199 192 187 184 182 180 179 178 176 179 189 189 189 197 205 210 214 214 207 206 232 228
240 237 231 229 232 233 232 232 228 227 236 241 237 232 232 236 237 239 255 273 256 227 217 208 217 235 235 228 230 228 226 228 227 225 224 224 220 215 218 223 225 225 227 229 230 233 238 238 237 239 237 228 217 214 213 211 211 209 210 210 201 195 193 193 192 191 187 185 183 182 183 185 184 189 196 195 196 206 219 226 226 225 227 237 247 239
238 236 234 231 231 231 230 232 229 225 233 239 235 233 232 233 235 239 250 252 238 230 227 218 218 233 240 236 231 228 230 231 229 225 221 222 220 213 214 221 225 228 230 230 231 236 242 244 243 241 234 224 217 216 214 213 213 210 210 205 197 193 192 191 191 189 187 186 187 188 191 193 194 195 194 196 201 210 221 230 231 229 232 239 244 246
234 236 237 233 230 231 232 234 229 222 230 238 237 239 237 231 232 238 241 238 239 238 231 222 221 232 242 240 236 236 236 232 226 222 219 219 217 213 215 219 224 228 228 229 234 239 247 251 246 237 231 224 217 211 204 203 208 209 206 201 198 197 195 193 191 189 190 191 191 193 195 196 195 191 187 192 201 211 225 234 237 241 245 244 242 245
232 233 234 233 231 233 232 229 225 224 234 239 235 235 234 230 233 237 233 233 239 237 233 229 222 230 242 244 243 239 234 229 224 220 215 212 212 213 216 217 221 225 226 229 234 239 246 250 243 229 216 208 205 203 198 199 203 206 205 201 201 200 196 195 193 192 193 194 195 196 197 196 193 193 192 197 208 219 230 234 235 243 250 250 249 248
234 232 230 232 231 231 231 229 228 230 234 235 231 230 231 231 234 235 229 229 233 230 234 234 225 227 243 245 238 232 231 229 226 222 216 211 212 213 214 218 224 226 227 230 232 237 242 239 230 220 209 205 209 206 197 200 207 207 206 203 201 200 198 196 196 195 195 196 196 196 197 197 197 202 205 207 214 221 226 228 230 239 248 251 252 252
238 236 233 232 230 229 232 232 232 233 229 229 230 229 231 232 231 232 229 225 226 228 230 230 225 223 236 243 229 226 235 229 220 219 218 215 212 210 213 220 224 224 226 232 234 239 239 231 224 220 218 218 215 209 204 210 214 207 203 202 200 197 195 194 195 195 195 195 194 192 192 195 199 207 211 210 213 216 219 221 226 239 249 253 253 255
238 236 235 232 227 226 230 233 234 232 225 223 225 222 226 231 230 236 231 218 221 230 224 221 225 224 228 239 233 230 243 230 214 210 212 214 210 209 214 219 222 224 227 233 236 237 234 227 220 215 218 218 209 209 209 202 200 199 197 196 193 190 188 189 191 192 194 194 194 192 191 195 201 209 214 214 214 216 219 222 228 241 249 255 260 262
236 232 232 229 226 223 226 231 234 233 226 221 221 217 221 226 225 232 226 216 223 230 222 220 231 232 228 236 238 230 234 227 212 206 207 209 205 206 212 216 222 228 229 231 234 235 230 224 217 211 211 210 205 205 200 194 193 192 191 190 188 187 188 191 193 193 196 197 198 200 201 205 210 214 219 218 218 221 225 227 230 237 244 254 264 265
238 234 233 230 229 226 227 227 226 230 227 218 216 213 214 214 214 225 226 225 229 230 228 226 231 235 228 230 235 226 220 217 209 207 204 200 198 203 212 216 222 229 230 232 232 230 226 220 218 216 212 214 217 210 205 208 202 191 192 194 193 191 193 197 197 197 200 203 205 207 210 214 216 219 223 220 220 225 229 233 232 234 242 252 260 262
235 235 232 231 230 226 228 227 221 227 227 217 214 212 214 212 211 220 221 223 229 231 234 228 224 228 222 220 224 217 218 221 216 208 194 191 198 205 214 218 222 228 232 232 228 225 224 220 220 220 217 221 222 211 206 206 195 190 198 204 202 200 199 200 202 203 206 209 211 212 215 218 219 223 226 225 226 229 233 236 235 234 239 247 253 253
236 238 231 229 229 224 227 225 220 227 233 224 218 217 221 219 214 220 223 224 224 225 231 222 217 220 214 217 220 211 218 224 219 210 197 201 208 210 219 224 224 229 232 229 225 224 225 221 219 220 220 222 220 210 205 199 189 193 202 205 206 206 205 206 207 207 209 211 214 216 217 219 220 223 226 227 230 233 234 236 233 233 236 241 246 244
235 242 237 229 228 226 227 224 216 218 224 225 221 219 224 220 213 219 229 232 225 221 227 217 210 217 215 222 228 215 216 221 215 213 210 212 213 213 222 226 225 229 230 227 222 220 219 215 216 218 220 222 218 212 209 203 197 200 204 207 209 209 209 211 213 215 216 217 217 217 217 219 220 222 225 228 233 233 231 232 230 230 235 240 243 243
233 241 244 233 226 226 224 222 219 216 214 219 222 221 224 222 219 218 220 227 225 224 230 214 204 214 219 225 230 221 218 221 217 215 215 217 216 217 224 226 224 227 227 223 216 212 212 212 216 218 219 220 218 216 213 209 208 208 209 212 214 214 214 214 217 221 221 220 218 218 219 221 221 224 228 231 234 233 229 228 228 231 238 242 244 241
233 238 245 235 225 226 222 217 221 222 216 217 223 222 218 215 220 221 218 219 219 223 232 220 208 218 224 227 231 225 220 221 221 222 224 226 224 222 224 224 223 225 227 222 216 214 216 218 221 220 219 219 219 219 214 210 211 210 212 217 219 220 220 219 221 223 223 222 222 224 226 226 225 226 230 233 234 232 228 227 230 235 238 241 240 230
231 230 239 237 226 224 224 218 218 223 222 220 223 223 220 217 219 220 219 217 216 220 227 225 224 231 231 231 231 225 221 222 222 224 229 230 227 224 224 224 225 227 227 223 218 218 220 222 222 220 218 220 221 222 218 217 218 217 221 228 228 226 227 226 225 226 227 227 227 231 232 229 227 229 232 234 232 229 228 230 232 235 236 236 231 220
232 226 229 235 227 218 220 221 217 219 223 224 224 222 221 223 222 222 223 221 216 219 222 222 229 232 229 230 228 222 222 223 221 222 227 229 226 224 227 228 228 227 224 220 218 218 218 217 217 217 219 221 223 223 222 225 228 229 234 236 233 232 232 232 231 229 232 232 231 233 232 227 226 228 231 233 231 228 231 234 234 234 234 231 224 217
232 227 223 225 226 219 217 221 217 216 222 223 223 225 224 225 223 223 231 228 220 220 223 219 224 231 231 228 225 224 226 227 227 224 221 221 218 218 221 222 222 221 218 214 213 213 213 213 215 218 218 219 222 223 225 230 234 237 239 237 236 236 234 236 235 233 235 235 234 235 232 228 226 227 229 230 228 229 234 237 233 231 230 227 221 218
226 228 225 223 225 223 220 223 220 217 221 217 218 229 230 230 225 219 225 229 225 226 229 219 218 227 231 227 221 225 227 229 236 231 219 215 214 212 215 218 220 218 214 211 210 210 211 214 216 216 215 217 222 227 229 232 236 240 239 237 239 238 236 238 237 236 237 236 235 237 234 231 228 224 225 226 226 230 235 234 229 226 225 223 220 217
226 228 228 225 229 229 225 226 223 218 220 218 221 233 231 231 231 224 222 224 224 226 227 228 229 228 232 232 223 222 229 234 236 226 216 214 215 215 219 224 225 220 215 211 209 209 210 214 217 218 219 221 225 229 231 233 238 241 239 237 237 235 235 238 237 236 238 236 234 234 234 232 228 222 222 224 227 232 232 228 225 223 222 221 219 216
224 226 226 223 226 231 229 229 227 225 222 216 222 237 236 234 239 231 221 219 223 224 219 222 231 230 230 232 226 224 232 233 224 216 217 221 221 222 224 226 227 224 218 212 210 212 215 217 222 227 229 227 227 230 230 231 235 236 234 233 232 232 234 237 235 234 236 235 232 231 231 229 227 227 227 225 226 229 227 223 222 221 220 221 218 215
220 220 222 215 215 221 224 225 225 225 225 222 227 241 242 237 239 228 216 215 223 224 219 217 221 223 226 228 228 230 230 224 217 215 220 221 215 212 213 217 220 219 213 208 208 213 217 218 220 222 225 226 224 222 221 222 226 225 227 230 230 232 235 234 235 235 236 237 234 232 232 230 230 232 231 229 229 226 221 221 221 220 221 223 219 216
217 222 226 223 219 220 221 222 223 224 225 225 232 245 243 236 236 227 218 222 225 222 225 224 213 209 218 224 225 227 225 223 225 223 219 216 208 199 197 198 199 201 203 202 200 199 201 206 207 205 214 215 207 207 210 213 214 215 223 231 233 237 238 234 236 238 238 237 233 232 235 234 233 233 230 230 232 226 221 222 222 220 222 224 221 219
217 226 232 231 229 225 219 219 224 226 227 227 230 240 243 236 234 225 221 229 228 222 226 225 213 209 218 224 223 222 223 226 230 226 217 212 203 191 183 178 178 184 188 190 193 192 190 194 196 191 194 190 184 187 196 206 214 216 224 234 237 239 238 234 236 237 232 229 230 234 235 231 230 230 228 227 230 227 223 221 220 218 222 226 225 223
227 232 234 229 229 229 223 221 226 228 229 230 230 235 240 238 234 230 231 234 230 223 219 214 211 217 222 226 229 227 226 226 225 222 217 209 199 187 176 168 173 181 184 190 200 203 203 212 224 220 207 203 206 213 215 220 230 231 229 232 233 232 230 228 229 227 222 223 232 239 234 223 221 225 225 225 229 229 223 220 221 221 224 229 231 231
232 235 236 229 227 230 225 222 228 230 231 233 232 234 237 236 234 233 239 241 233 225 218 208 207 221 228 233 237 233 228 226 223 222 224 217 205 193 183 184 192 195 200 208 213 215 215 220 229 232 229 238 258 263 250 241 240 237 230 225 223 224 226 225 224 222 224 231 239 239 228 219 221 227 227 225 228 228 225 225 225 223 224 231 236 239
230 230 233 228 225 228 224 222 227 230 231 233 232 234 237 236 235 234 238 243 234 224 223 218 215 222 229 233 233 225 219 218 215 214 217 214 204 195 191 198 204 209 218 224 223 224 226 225 226 231 236 245 258 262 260 255 251 251 244 231 224 223 225 226 226 226 232 238 239 235 229 226 229 231 228 227 231 232 227 223 222 224 231 238 241 243
229 228 232 228 225 230 228 225 228 227 227 232 234 240 245 239 234 232 234 239 232 220 223 229 228 226 228 228 226 223 217 214 212 207 202 202 205 206 207 205 204 211 220 226 228 230 234 235 236 240 242 244 250 255 258 255 252 259 259 244 234 231 230 231 233 236 243 244 241 239 238 237 235 231 229 234 239 233 225 224 229 237 243 244 244 246
225 224 230 227 223 236 239 230 229 227 227 235 241 249 252 243 232 230 231 231 229 224 223 227 226 224 224 223 223 226 228 224 222 219 213 214 221 225 224 220 218 219 222 226 232 238 241 240 242 244 246 250 255 257 258 257 255 259 262 254 243 236 234 236 239 243 250 252 250 250 246 242 241 239 240 244 244 238 237 242 247 250 250 249 249 249
230 226 231 226 220 234 244 236 234 233 231 237 243 252 257 245 230 229 232 229 230 230 227 225 222 220 220 219 217 219 224 226 223 222 221 221 226 230 230 230 228 225 229 236 241 246 246 246 247 248 250 254 256 253 253 254 256 258 260 258 254 247 241 240 243 248 252 254 257 260 257 253 254 255 254 254 253 253 256 258 258 256 254 254 254 254
238 234 231 226 222 229 235 233 235 235 233 236 243 255 263 249 230 227 230 230 229 225 223 224 225 223 221 218 212 208 210 214 216 220 223 224 226 227 228 231 231 230 234 239 242 246 249 250 250 251 253 255 253 250 250 253 256 258 260 262 262 260 256 254 255 257 259 261 263 265 264 263 264 265 265 264 264 264 265 264 262 261 260 259 260 260
234 234 231 226 225 229 229 229 230 230 233 239 243 253 259 249 237 231 227 235 238 229 224 227 227 222 217 212 210 209 209 212 217 223 225 225 226 227 227 230 234 236 238 240 241 246 249 250 250 251 254 255 256 256 257 259 260 260 261 262 261 261 260 260 261 263 263 264 265 266 267 267 266 266 267 268 268 268 269 268 266 265 265 265 265 264
228 230 234 232 232 233 229 229 231 232 239 244 240 243 246 240 240 235 226 240 251 237 223 224 223 220 216 211 210 211 213 220 232 236 231 227 228 230 230 234 238 240 243 244 246 249 251 251 251 251 253 254 256 256 257 258 260 261 262 262 262 261 260 260 262 264 264 264 264 265 267 267 267 267 267 267 267 268 269 269 269 268 268 268 269 268
237 234 236 235 239 242 236 235 239 237 241 243 240 243 248 248 250 243 228 237 250 234 214 213 216 218 219 219 219 221 224 232 240 240 236 232 232 233 235 238 241 242 244 246 249 250 251 251 251 251 253 254 253 253 256 258 259 259 260 262 263 262 262 263 265 266 266 266 266 267 269 269 269 269 269 268 268 267 268 268 268 268 268 268 270 269
252 245 239 237 242 245 239 237 239 236 236 242 244 245 248 251 254 246 229 232 238 226 211 211 215 220 224 226 228 232 236 239 240 239 236 234 235 236 237 239 242 243 245 248 249 248 247 248 249 250 253 255 255 256 259 262 262 261 262 262 262 263 264 266 268 268 268 268 269 269 270 270 270 270 270 270 269 268 268 268 268 268 268 269 270 270
256 251 248 248 249 248 242 238 240 239 239 244 249 249 247 245 244 235 228 232 232 221 214 215 217 221 225 228 232 237 238 238 237 236 234 235 237 238 239 241 243 244 246 248 248 247 246 246 248 251 254 256 257 257 259 261 262 262 262 262 261 262 265 266 267 268 268 269 269 270 270 270 271 271 271 270 269 269 268 268 268 268 269 270 271 272
251 250 251 250 247 246 243 239 241 244 245 248 255 257 250 241 237 233 229 230 229 221 218 218 217 221 225 228 232 236 234 232 231 232 233 234 237 238 239 241 243 245 247 248 250 250 249 248 250 253 255 257 257 258 259 259 259 259 260 260 262 264 266 267 268 268 269 270 271 271 271 272 272 272 272 271 270 270 270 270 270 271 271 271 271 272
250 249 251 249 247 245 239 235 240 245 249 251 254 257 251 239 234 235 228 222 223 222 218 214 214 217 221 221 223 225 225 224 226 230 232 234 236 239 240 242 244 246 247 248 250 252 252 252 253 254 255 256 257 258 259 259 258 260 261 262 264 267 269 270 270 271 271 272 273 273 273 273 273 273 272 272 271 271 271 271 271 271 271 271 271 271
248 241 240 247 251 247 238 238 242 246 254 258 253 251 250 239 231 227 220 217 223 223 218 215 215 215 215 218 222 224 226 228 229 231 233 235 237 239 240 242 243 245 247 249 251 253 253 253 255 256 257 258 258 259 260 260 261 264 265 266 268 269 270 271 272 273 273 274 274 274 274 274 274 274 273 273 272 272 272 271 271 271 271 271 271 271
257 244 238 246 250 247 243 242 241 243 253 261 250 241 243 240 230 223 219 221 226 225 223 223 223 222 221 224 229 232 233 235 235 235 237 240 241 241 243 245 247 248 249 252 254 255 255 254 255 257 259 260 261 262 263 264 266 268 270 270 271 272 273 273 274 274 274 274 275 275 275 275 275 275 275 275 274 274 273 272 272 272 272 272 272 272
259 245 242 249 250 248 243 237 234 238 248 253 242 235 236 235 231 228 226 229 232 233 232 233 233 233 232 233 237 240 242 243 242 241 242 244 246 247 247 248 251 253 254 256 258 259 259 258 258 260 262 264 265 266 266 267 268 270 272 273 274 274 275 275 276 276 277 277 277 277 277 277 277 277 276 276 276 275 275 274 274 273 273 272 272 272
253 246 250 252 248 248 247 241 238 241 244 242 236 233 232 232 234 234 232 234 237 237 238 240 241 243 243 242 244 246 247 249 248 246 246 247 249 250 249 251 255 257 259 260 261 262 262 262 262 264 266 268 269 269 270 270 271 272 273 274 274 275 275 276 277 278 278 278 278 278 278 278 277 277 277 277 276 275 275 275 275 275 275 274 273 273
263 264 263 255 249 250 249 246 246 244 242 240 238 238 239 239 239 238 236 237 240 240 240 242 243 246 248 248 248 250 252 253 252 251 250 250 249 249 251 254 257 259 262 265 264 263 265 265 266 268 270 272 272 273 273 274 274 275 275 276 276 277 277 278 279 279 279 279 279 279 279 279 279 279 278 278 277 277 276 276 275 275 275 275 275 274
271 272 268 262 260 256 248 245 247 246 245 244 242 242 244 242 240 240 239 240 243 245 246 246 245 246 249 250 251 253 253 254 256 255 253 253 252 252 254 258 260 262 265 266 265 265 268 269 269 271 273 274 274 275 275 275 276 276 276 277 278 279 279 279 279 280 280 280 280 280 280 280 281 280 280 280 279 279 278 277 277 276 275 275 275 275
277 275 269 265 264 260 251 246 245 247 250 250 248 249 249 245 241 241 242 244 246 247 249 250 250 251 253 254 254 253 252 253 257 259 258 257 257 258 261 263 265 267 268 267 267 268 270 270 270 271 273 274 275 275 276 276 276 277 278 278 279 279 280 280 281 281 281 281 281 281 281 281 281 281 281 281 281 281 280 279 278 278 277 276 276 275
286 279 274 268 264 261 255 249 247 250 253 253 249 250 250 246 241 241 242 244 247 249 249 250 252 254 255 256 256 255 254 255 258 262 263 261 261 264 265 265 267 268 267 267 268 269 268 268 269 270 272 274 275 275 277 278 278 279 280 280 281 281 282 283 283 283 283 283 282 282 282 282 282 282 281 281 281 281 281 280 280 279 278 277 277 276
289 280 273 267 262 258 252 248 248 250 249 247 244 245 248 247 244 244 245 247 249 251 250 251 252 253 253 255 255 255 256 258 259 262 264 264 264 265 265 265 267 267 265 266 268 268 267 268 270 271 273 275 276 277 279 280 281 282 282 282 282 283 284 284 285 285 285 285 284 284 284 284 283 283 283 283 283 283 283 282 282 281 280 279 278 277